Weather History for Cecil Field, FL

Change the Weather History Date:

Friday, December 7, 2012

  Actual Average (KJAX) Record (KJAX)
Temperature  
Mean Temperature 62 °F 57 °F  
Max Temperature 64 °F 68 °F 83 °F (2013)
Min Temperature 59 °F 46 °F 21 °F (1937)
Degree Days  
Heating Degree Days 4 9  
Month to date heating degree days 59  
Since 1 July heating degree days 232  
Cooling Degree Days 0 1  
Month to date cooling degree days 7  
Year to date cooling degree days 2651  
Growing Degree Days 12 (Base 50)    
Moisture  
Dew Point 59 °F    
Average Humidity 97    
Maximum Humidity 100    
Minimum Humidity 88    
Precipitation  
Precipitation 0.00 in 0.09 in 2.03 in (1875)
Month to date precipitation 0.62  
Year to date precipitation 50.21  
Snow  
Snow 0.00 in 0.00 in 0.00 in (2001)
Month to date snowfall 0.0  
Since 1 July snowfall 0.0  
Snow Depth -    
Sea Level Pressure  
Sea Level Pressure 30.02 in    
Wind  
Wind Speed 4 mph (North)    
Max Wind Speed 9 mph    
Max Gust Speed -    
Visibility 4 miles    
Events      
T = Trace of Precipitation, MM = Missing Value Source: NWS Daily Summary

Daily Weather History Graph

Daily Weather History Graph

Search for Another Location

Airport:

Trip Planner

Search our weather history database for the weather conditions in past years. The results will help you decide how hot, cold, wet, or windy it might be!

Date:

Astronomy

Dec. 07, 2012 Rise Set
Actual Time 7:11 AM EST 5:27 PM EST
Civil Twilight 6:44 AM EST 5:53 PM EST
Nautical Twilight 6:15 AM EST 6:23 PM EST
Astronomical Twilight 5:45 AM EST 6:52 PM EST
Moon 12:52 AM EST (12/7) 1:02 PM EST (12/7)
Length of Visible Light 11h 08m
Length of Day
10h 15m
Last Quarter, 39% of the Moon is Illuminated
Dec 7
Last Quarter
Dec 13
New
Dec 20
First Quarter
Dec 28
Full
Jan 4
Last Quarter

Hourly Weather History & Observations

Time (EST) Temp. Dew Point Humidity Pressure Visibility Wind Dir Wind Speed Gust Speed Precip Events Conditions
12:15 AM 60.8 °F 60.8 °F 100% 30.03 in 2.5 mi North 8.1 mph - N/A   Overcast
12:35 AM 60.8 °F 60.8 °F 100% 30.03 in 2.0 mi North 4.6 mph - N/A   Overcast
12:55 AM 60.8 °F 60.8 °F 100% 30.03 in 2.0 mi North 5.8 mph - N/A   Overcast
1:15 AM 60.8 °F 60.8 °F 100% 30.02 in 1.5 mi North 8.1 mph - N/A   Overcast
1:35 AM 60.8 °F 60.8 °F 100% 30.02 in 1.8 mi Calm Calm - N/A   Overcast
1:55 AM 60.8 °F 60.8 °F 100% 30.02 in 1.2 mi Calm Calm - N/A   Overcast
2:15 AM 60.8 °F 60.8 °F 100% 30.02 in 1.0 mi Calm Calm - N/A   Overcast
2:35 AM 59.0 °F 59.0 °F 100% 30.03 in 1.0 mi North 6.9 mph - N/A   Overcast
2:55 AM 59.0 °F 59.0 °F 100% 30.02 in 1.0 mi North 3.5 mph - N/A   Overcast
3:15 AM 59.0 °F 59.0 °F 100% 30.02 in 1.2 mi North 6.9 mph - N/A   Overcast
3:35 AM 59.0 °F 59.0 °F 100% 30.01 in 1.5 mi North 6.9 mph - N/A   Overcast
3:55 AM 59.0 °F 59.0 °F 100% 30.01 in 1.2 mi North 4.6 mph - N/A   Overcast
4:15 AM 59.0 °F 59.0 °F 100% 30.00 in 1.0 mi North 5.8 mph - N/A   Overcast
4:35 AM 59.0 °F 59.0 °F 100% 30.00 in 1.0 mi North 5.8 mph - N/A   Overcast
4:55 AM 59.0 °F 59.0 °F 100% 30.00 in 1.0 mi North 6.9 mph - N/A   Overcast
5:15 AM 59.0 °F 59.0 °F 100% 30.00 in 1.0 mi North 5.8 mph - N/A   Overcast
5:35 AM 59.0 °F 59.0 °F 100% 30.01 in 1.0 mi North 8.1 mph - N/A   Overcast
5:55 AM 59.0 °F 59.0 °F 100% 30.01 in 1.5 mi North 5.8 mph - N/A   Overcast
6:15 AM 59.0 °F 59.0 °F 100% 30.01 in 2.5 mi Calm Calm - N/A   Overcast
6:35 AM 59.0 °F 59.0 °F 100% 30.02 in 3.0 mi North 5.8 mph - N/A   Overcast
6:50 AM 59.0 °F 59.0 °F 100% 30.03 in 2.0 mi North 9.2 mph - N/A   Overcast
7:50 AM 59.0 °F 59.0 °F 100% 30.04 in 2.0 mi NNE 6.9 mph - N/A   Overcast
8:50 AM 59.0 °F 59.0 °F 100% 30.05 in 2.5 mi NNE 6.9 mph - N/A   Overcast
9:50 AM 59.0 °F 59.0 °F 100% 30.06 in 3.0 mi NE 4.6 mph - N/A   Overcast
10:50 AM 60.8 °F 59.0 °F 94% 30.07 in 5.0 mi North 5.8 mph - N/A   Overcast
11:50 AM 62.6 °F 59.0 °F 88% 30.05 in 5.0 mi North 6.9 mph - N/A   Overcast
1:50 PM 64.4 °F 60.8 °F 88% 30.00 in 5.0 mi Calm Calm - N/A   Overcast
3:50 PM 64.4 °F 60.8 °F 88% 29.98 in 6.0 mi Calm Calm - N/A   Overcast
4:50 PM 64.4 °F 60.8 °F 88% 29.99 in 6.0 mi Calm Calm - N/A   Overcast
5:50 PM 64.4 °F 60.8 °F 88% 29.99 in 6.0 mi Calm Calm - N/A   Overcast
6:50 PM 62.6 °F 60.8 °F 94% 30.00 in 6.0 mi Calm Calm - N/A   Overcast
8:15 PM 62.6 °F 59.0 °F 88% 30.02 in 10.0 mi Calm Calm - N/A   Overcast
8:35 PM 62.6 °F 59.0 °F 88% 30.03 in 10.0 mi NE 4.6 mph - N/A   Overcast
8:55 PM 62.6 °F 59.0 °F 88% 30.03 in 10.0 mi Calm Calm - N/A   Overcast
9:15 PM 60.8 °F 59.0 °F 94% 30.03 in 9.0 mi Calm Calm - N/A   Overcast
9:35 PM 60.8 °F 59.0 °F 94% 30.03 in 7.0 mi ENE 3.5 mph - N/A   Overcast
9:55 PM 60.8 °F 59.0 °F 94% 30.04 in 6.0 mi Calm Calm - N/A   Overcast
10:15 PM 60.8 °F 59.0 °F 94% 30.04 in 5.0 mi Calm Calm - N/A   Overcast
10:35 PM 60.8 °F 59.0 °F 94% 30.04 in 6.0 mi Calm Calm - N/A   Overcast
10:55 PM 59.0 °F 59.0 °F 100% 30.04 in 6.0 mi Calm Calm - N/A   Overcast
11:15 PM 59.0 °F 59.0 °F 100% 30.04 in 6.0 mi Calm Calm - N/A   Overcast
11:35 PM 59.0 °F 59.0 °F 100% 30.04 in 7.0 mi Calm Calm - N/A   Overcast
11:55 PM 59.0 °F 57.2 °F 94% 30.04 in 5.0 mi Calm Calm - N/A   Overcast